Weather History for Sussex, NJ

Change the Weather History Date:

Wednesday, February 13, 2013

  Actual Average Record
Temperature  
Mean Temperature 31 °F -  
Max Temperature 41 °F 35 °F 60 °F (1951)
Min Temperature 21 °F 11 °F -16 °F (1967)
Degree Days  
Heating Degree Days 34    
Moisture  
Dew Point 24 °F    
Average Humidity 69    
Maximum Humidity 92    
Minimum Humidity 47    
Precipitation  
Precipitation 0.00 in - - ()
Sea Level Pressure  
Sea Level Pressure 29.80 in    
Wind  
Wind Speed 1 mph (East)    
Max Wind Speed 5 mph    
Max Gust Speed -    
Visibility 8 miles    
Events Snow    
Averages and records for this station are not official NWS values.
T = Trace of Precipitation, MM = Missing Value Source: NWS Daily Summary

Daily Weather History Graph

Daily Weather History Graph

Search for Another Location

Airport:

Trip Planner

Search our weather history database for the weather conditions in past years. The results will help you decide how hot, cold, wet, or windy it might be!

Date:

Astronomy

Feb. 13, 2013 Rise Set
Actual Time 6:55 AM EST 5:30 PM EST
Civil Twilight 6:27 AM EST 5:58 PM EST
Nautical Twilight 5:54 AM EST 6:31 PM EST
Astronomical Twilight 5:22 AM EST 7:03 PM EST
Moon 8:20 AM EST (2/13) 9:33 PM EST (2/13)
Length of Visible Light 11h 31m
Length of Day
10h 35m
Waxing Crescent, 13% of the Moon is Illuminated
Feb 13
Waxing Crescent
Feb 17
First Quarter
Feb 25
Full
Mar 4
Last Quarter
Mar 11
New

Hourly Weather History & Observations

Time (EST) Temp. Windchill Dew Point Humidity Pressure Visibility Wind Dir Wind Speed Gust Speed Precip Events Conditions
12:53 AM 35.1 °F - 21.0 °F 57% 29.92 in 10.0 mi Calm Calm - N/A   Overcast
1:53 AM 34.0 °F - 21.0 °F 59% 29.94 in 10.0 mi Calm Calm - N/A   Mostly Cloudy
2:53 AM 34.0 °F - 19.9 °F 56% 29.93 in 10.0 mi Calm Calm - N/A   Overcast
3:53 AM 28.9 °F - 19.9 °F 69% 29.92 in 10.0 mi Calm Calm - N/A   Clear
4:53 AM 26.1 °F - 19.9 °F 78% 29.90 in 10.0 mi Calm Calm - N/A   Clear
5:53 AM 23.0 °F - 19.9 °F 88% 29.90 in 10.0 mi Calm Calm - N/A   Clear
6:53 AM 21.9 °F - 18.0 °F 85% 29.90 in 8.0 mi Calm Calm - N/A   Clear
7:53 AM 24.1 °F - 19.9 °F 84% 29.91 in 8.0 mi Calm Calm - N/A   Clear
8:53 AM 28.0 °F - 21.9 °F 78% 29.88 in 10.0 mi Calm Calm - N/A   Clear
9:53 AM 35.1 °F - 23.0 °F 61% 29.86 in 10.0 mi Calm Calm - 0.00 in   Clear
10:53 AM 36.0 °F 33.3 °F 19.9 °F 52% 29.86 in 10.0 mi SE 3.5 mph - 0.00 in   Clear
11:53 AM 37.9 °F 34.4 °F 21.0 °F 51% 29.86 in 10.0 mi SE 4.6 mph - N/A   Clear
12:53 PM 39.0 °F 35.7 °F 21.9 °F 50% 29.81 in 10.0 mi ESE 4.6 mph - N/A   Clear
1:53 PM 41.0 °F - 21.9 °F 47% 29.78 in 10.0 mi Calm Calm - N/A   Clear
2:53 PM 39.9 °F 37.8 °F 23.0 °F 51% 29.75 in 10.0 mi East 3.5 mph - N/A   Clear
3:53 PM 41.0 °F - 21.9 °F 47% 29.74 in 10.0 mi Calm Calm - N/A   Clear
4:53 PM 39.9 °F - 24.1 °F 53% 29.72 in 10.0 mi Calm Calm - N/A   Mostly Cloudy
5:53 PM 37.0 °F - 26.1 °F 65% 29.71 in 10.0 mi Calm Calm - N/A   Mostly Cloudy
6:53 PM 35.1 °F - 28.0 °F 76% 29.70 in 10.0 mi Calm Calm - N/A   Overcast
7:53 PM 36.0 °F - 26.1 °F 67% 29.71 in 10.0 mi Calm Calm - N/A   Overcast
8:53 PM 35.1 °F - 28.0 °F 76% 29.72 in 8.0 mi Calm Calm - 0.00 in   Overcast
9:53 PM 35.1 °F - 28.9 °F 78% 29.72 in 5.0 mi Calm Calm - 0.00 in Snow Light Snow
10:34 PM 33.8 °F - 30.2 °F 87% 29.70 in 2.5 mi Calm Calm - 0.00 in Snow Light Snow
10:53 PM 33.1 °F - 30.9 °F 92% 29.70 in 2.5 mi Calm Calm - 0.00 in Snow Light Snow
10:59 PM 33.8 °F - 30.2 °F 87% 29.70 in 3.0 mi Calm Calm - 0.00 in Snow Light Snow
11:32 PM 33.8 °F 30.8 °F 30.2 °F 87% 29.70 in 7.0 mi NE 3.5 mph - 0.00 in   Overcast
11:53 PM 34.0 °F 31.0 °F 30.0 °F 85% 29.72 in 4.0 mi NNE 3.5 mph - 0.00 in Snow Light Snow